Find Starlink 31753

NORAD ID: 59484 Int'l Des: 2024-071 Owner: SPXS Country: US Constellation: starlink operational
LEOCIRCULAR

リアルタイム位置

3D地球を読み込み中...

Starlink 31753について

説明を読み込み中...

次回通過

Passes for default location (London). Set your location on the main map for personalized predictions.

高度履歴

Loading altitude history...

軌道要素

1 59484U 24071A 26126.02652838 .00001339 00000-0 58163-4 0 9998
2 59484 43.0043 16.0145 0001474 273.3554 86.7129 15.27586255116971
Epoch: May 6, 2026 • Age: 14 hours

現在のステータス

高度 483.6 km
速度 7.63 km/s
衛星直下点 26.30°N, 44.06°W
打ち上げ日 Apr 13, 2024
運用期間 2 years
タイプ internet

技術仕様

分類 Payload
質量 730.00 kg
乾燥質量 700.00 kg
総質量 730.00 kg
長さ 0.30 m
直径 4.10 m
スパン 29.00 m
形状 Box + pan
製造者 SPXS
バスタイプ Starlink V2M
フェーズステータス In Orbit
所有者/国 SPXS/US

Most Searched